2019,03,21,00,00,00,122.4,,,,,,,,,,,,,,
2019,03,21,00,01,00,,,,,,,,,,,,,,,
2019,03,21,00,02,00,122.1,,,,,,,,,,,,,,
2019,03,21,00,03,00,118.3,,,,,,,,,,,,,,
2019,03,21,00,04,00,133.2,,,,,,,,,,,,,,
2019,03,21,00,05,00,126.1,,,,,,,,,,,,,,
2019,03,21,00,06,00,115.9,,,,,,,,,,,,,,
2019,03,21,00,07,00,114.3,,,,,,,,,,,,,,
2019,03,21,00,08,00,113.2,,,,,,,,,,,,,,
2019,03,21,00,09,00,91.3,,,,,,,,,,,,,,
2019,03,21,00,10,00,95.5,,,,,,,,,,,,,,
2019,03,21,00,11,00,102.0,,,,,,,,,,,,,,
2019,03,21,00,12,00,151.2,,,,,,,,,,,,,,
2019,03,21,00,13,00,133.8,,,,,,,,,,,,,,
2019,03,21,00,14,00,122.9,,,,,,,,,,,,,,
2019,03,21,00,15,00,119.6,,,,,,,,,,,,,,
2019,03,21,00,16,00,114.1,,,,,,,,,,,,,,
2019,03,21,00,17,00,109.0,,,,,,,,,,,,,,
2019,03,21,00,18,00,108.9,,,,,,,,,,,,,,
2019,03,21,00,19,00,117.8,,,,,,,,,,,,,,
2019,03,21,00,20,00,109.0,,,,,,,,,,,,,,
2019,03,21,00,21,00,99.2,,,,,,,,,,,,,,
2019,03,21,00,22,00,126.3,,,,,,,,,,,,,,
2019,03,21,00,23,00,156.8,,,,,,,,,,,,,,
2019,03,21,00,24,00,155.1,,,,,,,,,,,,,,
2019,03,21,00,25,00,131.6,,,,,,,,,,,,,,
2019,03,21,00,26,00,119.5,,,,,,,,,,,,,,
2019,03,21,00,27,00,123.1,,,,,,,,,,,,,,
2019,03,21,00,28,00,121.2,,,,,,,,,,,,,,
2019,03,21,00,29,00,120.6,,,,,,,,,,,,,,
2019,03,21,00,30,00,119.2,,,,,,,,,,,,,,
2019,03,21,00,31,00,144.9,,,,,,,,,,,,,,
2019,03,21,00,32,00,145.1,,,,,,,,,,,,,,
2019,03,21,00,33,00,130.2,,,,,,,,,,,,,,
2019,03,21,00,34,00,118.7,,,,,,,,,,,,,,
2019,03,21,00,35,00,110.5,,,,,,,,,,,,,,
2019,03,21,00,36,00,97.2,,,,,,,,,,,,,,
2019,03,21,00,37,00,106.7,,,,,,,,,,,,,,
2019,03,21,00,38,00,107.6,,,,,,,,,,,,,,
2019,03,21,00,39,00,112.3,,,,,,,,,,,,,,
2019,03,21,00,40,00,110.4,,,,,,,,,,,,,,
2019,03,21,00,41,00,100.4,,,,,,,,,,,,,,
2019,03,21,00,42,00,99.2,,,,,,,,,,,,,,
2019,03,21,00,43,00,94.7,,,,,,,,,,,,,,
2019,03,21,00,44,00,92.3,,,,,,,,,,,,,,
2019,03,21,00,45,00,97.7,,,,,,,,,,,,,,
2019,03,21,00,46,00,101.9,,,,,,,,,,,,,,
2019,03,21,00,47,00,114.8,,,,,,,,,,,,,,
2019,03,21,00,48,00,114.0,,,,,,,,,,,,,,
2019,03,21,00,49,00,116.8,,,,,,,,,,,,,,
2019,03,21,00,50,00,116.3,,,,,,,,,,,,,,
2019,03,21,00,51,00,118.3,,,,,,,,,,,,,,
2019,03,21,00,52,00,120.3,,,,,,,,,,,,,,
2019,03,21,00,53,00,108.6,,,,,,,,,,,,,,
2019,03,21,00,54,00,114.2,,,,,,,,,,,,,,
2019,03,21,00,55,00,129.6,,,,,,,,,,,,,,
2019,03,21,00,56,00,124.4,,,,,,,,,,,,,,
2019,03,21,00,57,00,159.0,,,,,,,,,,,,,,
2019,03,21,00,58,00,173.3,,,,,,,,,,,,,,
2019,03,21,00,59,00,144.5,,,,,,,,,,,,,,
2019,03,21,01,00,00,141.2,,,,,,,,,,,,,,
2019,03,21,01,01,00,133.3,,,,,,,,,,,,,,
2019,03,21,01,02,00,136.2,,,,,,,,,,,,,,
2019,03,21,01,03,00,121.3,,,,,,,,,,,,,,
2019,03,21,01,04,00,137.0,,,,,,,,,,,,,,
2019,03,21,01,05,00,161.0,,,,,,,,,,,,,,
2019,03,21,01,06,00,128.9,,,,,,,,,,,,,,
2019,03,21,01,07,00,111.1,,,,,,,,,,,,,,
2019,03,21,01,08,00,134.5,,,,,,,,,,,,,,
2019,03,21,01,09,00,151.5,,,,,,,,,,,,,,
2019,03,21,01,10,00,151.5,,,,,,,,,,,,,,
2019,03,21,01,11,00,165.3,,,,,,,,,,,,,,
2019,03,21,01,12,00,145.8,,,,,,,,,,,,,,
2019,03,21,01,13,00,118.8,,,,,,,,,,,,,,
2019,03,21,01,14,00,106.4,,,,,,,,,,,,,,
2019,03,21,01,15,00,105.1,,,,,,,,,,,,,,
2019,03,21,01,16,00,95.0,,,,,,,,,,,,,,
2019,03,21,01,17,00,94.5,,,,,,,,,,,,,,
2019,03,21,01,18,00,80.9,,,,,,,,,,,,,,
2019,03,21,01,19,00,80.6,,,,,,,,,,,,,,
2019,03,21,01,20,00,80.4,,,,,,,,,,,,,,
2019,03,21,01,21,00,79.9,,,,,,,,,,,,,,
2019,03,21,01,22,00,80.7,,,,,,,,,,,,,,
2019,03,21,01,23,00,80.3,,,,,,,,,,,,,,
2019,03,21,01,24,00,85.4,,,,,,,,,,,,,,
2019,03,21,01,25,00,97.8,,,,,,,,,,,,,,
2019,03,21,01,26,00,91.9,,,,,,,,,,,,,,
2019,03,21,01,27,00,81.0,,,,,,,,,,,,,,
2019,03,21,01,28,00,80.2,,,,,,,,,,,,,,
2019,03,21,01,29,00,80.3,,,,,,,,,,,,,,
2019,03,21,01,30,00,91.3,,,,,,,,,,,,,,
2019,03,21,01,31,00,88.0,,,,,,,,,,,,,,
2019,03,21,01,32,00,80.6,,,,,,,,,,,,,,
2019,03,21,01,33,00,92.4,,,,,,,,,,,,,,
2019,03,21,01,34,00,115.7,,,,,,,,,,,,,,
2019,03,21,01,35,00,117.2,,,,,,,,,,,,,,
2019,03,21,01,36,00,130.4,,,,,,,,,,,,,,
2019,03,21,01,37,00,174.5,,,,,,,,,,,,,,
2019,03,21,01,38,00,164.9,,,,,,,,,,,,,,
2019,03,21,01,39,00,154.7,,,,,,,,,,,,,,
2019,03,21,01,40,00,154.5,,,,,,,,,,,,,,
2019,03,21,01,41,00,145.3,,,,,,,,,,,,,,
2019,03,21,01,42,00,118.7,,,,,,,,,,,,,,
2019,03,21,01,43,00,113.1,,,,,,,,,,,,,,
2019,03,21,01,44,00,104.1,,,,,,,,,,,,,,
2019,03,21,01,45,00,109.7,,,,,,,,,,,,,,
2019,03,21,01,46,00,119.7,,,,,,,,,,,,,,
2019,03,21,01,47,00,132.1,,,,,,,,,,,,,,
2019,03,21,01,48,00,123.1,,,,,,,,,,,,,,
2019,03,21,01,49,00,125.6,,,,,,,,,,,,,,
2019,03,21,01,50,00,123.2,,,,,,,,,,,,,,
2019,03,21,01,51,00,130.5,,,,,,,,,,,,,,
2019,03,21,01,52,00,118.0,,,,,,,,,,,,,,
2019,03,21,01,53,00,119.3,,,,,,,,,,,,,,
2019,03,21,01,54,00,122.0,,,,,,,,,,,,,,
2019,03,21,01,55,00,131.4,,,,,,,,,,,,,,
2019,03,21,01,56,00,134.5,,,,,,,,,,,,,,
2019,03,21,01,57,00,151.9,,,,,,,,,,,,,,
2019,03,21,01,58,00,145.3,,,,,,,,,,,,,,
2019,03,21,01,59,00,127.1,,,,,,,,,,,,,,
2019,03,21,02,00,00,108.4,,,,,,,,,,,,,,
2019,03,21,02,01,00,105.5,,,,,,,,,,,,,,
2019,03,21,02,02,00,120.9,,,,,,,,,,,,,,
2019,03,21,02,03,00,114.2,,,,,,,,,,,,,,
2019,03,21,02,04,00,121.7,,,,,,,,,,,,,,
2019,03,21,02,05,00,113.6,,,,,,,,,,,,,,
2019,03,21,02,06,00,106.6,,,,,,,,,,,,,,
2019,03,21,02,07,00,106.4,,,,,,,,,,,,,,
2019,03,21,02,08,00,105.9,,,,,,,,,,,,,,
2019,03,21,02,09,00,111.8,,,,,,,,,,,,,,
2019,03,21,02,10,00,97.4,,,,,,,,,,,,,,
2019,03,21,02,11,00,83.0,,,,,,,,,,,,,,
2019,03,21,02,12,00,90.1,,,,,,,,,,,,,,
2019,03,21,02,13,00,102.5,,,,,,,,,,,,,,
2019,03,21,02,14,00,104.1,,,,,,,,,,,,,,
2019,03,21,02,15,00,116.3,,,,,,,,,,,,,,
2019,03,21,02,16,00,121.2,,,,,,,,,,,,,,
2019,03,21,02,17,00,120.6,,,,,,,,,,,,,,
2019,03,21,02,18,00,103.5,,,,,,,,,,,,,,
2019,03,21,02,19,00,114.1,,,,,,,,,,,,,,
2019,03,21,02,20,00,116.3,,,,,,,,,,,,,,
2019,03,21,02,21,00,116.0,,,,,,,,,,,,,,
2019,03,21,02,22,00,112.1,,,,,,,,,,,,,,
2019,03,21,02,23,00,120.9,,,,,,,,,,,,,,
2019,03,21,02,24,00,127.3,,,,,,,,,,,,,,
2019,03,21,02,25,00,124.5,,,,,,,,,,,,,,
2019,03,21,02,26,00,120.5,,,,,,,,,,,,,,
2019,03,21,02,27,00,118.2,,,,,,,,,,,,,,
2019,03,21,02,28,00,120.9,,,,,,,,,,,,,,
2019,03,21,02,29,00,138.5,,,,,,,,,,,,,,
2019,03,21,02,30,00,125.7,,,,,,,,,,,,,,
2019,03,21,02,31,00,124.8,,,,,,,,,,,,,,
2019,03,21,02,32,00,114.8,,,,,,,,,,,,,,
2019,03,21,02,33,00,123.7,,,,,,,,,,,,,,
2019,03,21,02,34,00,119.4,,,,,,,,,,,,,,
2019,03,21,02,35,00,106.9,,,,,,,,,,,,,,
2019,03,21,02,36,00,104.6,,,,,,,,,,,,,,
2019,03,21,02,37,00,97.0,,,,,,,,,,,,,,
2019,03,21,02,38,00,98.9,,,,,,,,,,,,,,
2019,03,21,02,39,00,105.7,,,,,,,,,,,,,,
2019,03,21,02,40,00,84.1,,,,,,,,,,,,,,
2019,03,21,02,41,00,87.8,,,,,,,,,,,,,,
2019,03,21,02,42,00,101.1,,,,,,,,,,,,,,
2019,03,21,02,43,00,104.4,,,,,,,,,,,,,,
2019,03,21,02,44,00,95.5,,,,,,,,,,,,,,
2019,03,21,02,45,00,86.2,,,,,,,,,,,,,,
2019,03,21,02,46,00,88.3,,,,,,,,,,,,,,
2019,03,21,02,47,00,83.9,,,,,,,,,,,,,,
2019,03,21,02,48,00,80.7,,,,,,,,,,,,,,
2019,03,21,02,49,00,102.5,,,,,,,,,,,,,,
2019,03,21,02,50,00,93.7,,,,,,,,,,,,,,
2019,03,21,02,51,00,94.8,,,,,,,,,,,,,,
2019,03,21,02,52,00,98.2,,,,,,,,,,,,,,
2019,03,21,02,53,00,99.4,,,,,,,,,,,,,,
2019,03,21,02,54,00,98.7,,,,,,,,,,,,,,
2019,03,21,02,55,00,118.3,,,,,,,,,,,,,,
2019,03,21,02,56,00,101.5,,,,,,,,,,,,,,
2019,03,21,02,57,00,101.0,,,,,,,,,,,,,,
2019,03,21,02,58,00,82.0,,,,,,,,,,,,,,
2019,03,21,02,59,00,86.4,,,,,,,,,,,,,,
2019,03,21,03,00,00,99.2,,,,,,,,,,,,,,
2019,03,21,03,01,00,112.4,,,,,,,,,,,,,,
2019,03,21,03,02,00,123.4,,,,,,,,,,,,,,
2019,03,21,03,03,00,117.5,,,,,,,,,,,,,,
2019,03,21,03,04,00,114.9,,,,,,,,,,,,,,
2019,03,21,03,05,00,116.2,,,,,,,,,,,,,,
2019,03,21,03,06,00,117.8,,,,,,,,,,,,,,
2019,03,21,03,07,00,128.8,,,,,,,,,,,,,,
2019,03,21,03,08,00,128.8,,,,,,,,,,,,,,
2019,03,21,03,09,00,123.7,,,,,,,,,,,,,,
2019,03,21,03,10,00,161.3,,,,,,,,,,,,,,
2019,03,21,03,11,00,174.9,,,,,,,,,,,,,,
2019,03,21,03,12,00,179.1,,,,,,,,,,,,,,
2019,03,21,03,13,00,192.2,,,,,,,,,,,,,,
2019,03,21,03,14,00,198.2,,,,,,,,,,,,,,
2019,03,21,03,15,00,207.8,,,,,,,,,,,,,,
2019,03,21,03,16,00,193.6,,,,,,,,,,,,,,
2019,03,21,03,17,00,167.8,,,,,,,,,,,,,,
2019,03,21,03,18,00,139.2,,,,,,,,,,,,,,
2019,03,21,03,19,00,136.3,,,,,,,,,,,,,,
2019,03,21,03,20,00,135.2,,,,,,,,,,,,,,
2019,03,21,03,21,00,126.5,,,,,,,,,,,,,,
2019,03,21,03,22,00,110.4,,,,,,,,,,,,,,
2019,03,21,03,23,00,117.0,,,,,,,,,,,,,,
2019,03,21,03,24,00,108.0,,,,,,,,,,,,,,
2019,03,21,03,25,00,115.1,,,,,,,,,,,,,,
2019,03,21,03,26,00,160.0,,,,,,,,,,,,,,
2019,03,21,03,27,00,189.4,,,,,,,,,,,,,,
2019,03,21,03,28,00,197.2,,,,,,,,,,,,,,
2019,03,21,03,29,00,185.3,,,,,,,,,,,,,,
2019,03,21,03,30,00,147.8,,,,,,,,,,,,,,
2019,03,21,03,31,00,121.9,,,,,,,,,,,,,,
2019,03,21,03,32,00,117.7,,,,,,,,,,,,,,
2019,03,21,03,33,00,112.9,,,,,,,,,,,,,,
2019,03,21,03,34,00,121.1,,,,,,,,,,,,,,
2019,03,21,03,35,00,124.8,,,,,,,,,,,,,,
2019,03,21,03,36,00,131.2,,,,,,,,,,,,,,
2019,03,21,03,37,00,134.1,,,,,,,,,,,,,,
2019,03,21,03,38,00,128.8,,,,,,,,,,,,,,
2019,03,21,03,39,00,162.2,,,,,,,,,,,,,,
2019,03,21,03,40,00,187.0,,,,,,,,,,,,,,
2019,03,21,03,41,00,184.0,,,,,,,,,,,,,,
2019,03,21,03,42,00,169.2,,,,,,,,,,,,,,
2019,03,21,03,43,00,202.2,,,,,,,,,,,,,,
2019,03,21,03,44,00,205.2,,,,,,,,,,,,,,
2019,03,21,03,45,00,205.8,,,,,,,,,,,,,,
2019,03,21,03,46,00,167.5,,,,,,,,,,,,,,
2019,03,21,03,47,00,180.7,,,,,,,,,,,,,,
2019,03,21,03,48,00,132.9,,,,,,,,,,,,,,
2019,03,21,03,49,00,128.5,,,,,,,,,,,,,,
2019,03,21,03,50,00,121.0,,,,,,,,,,,,,,
2019,03,21,03,51,00,117.4,,,,,,,,,,,,,,
2019,03,21,03,52,00,115.0,,,,,,,,,,,,,,
2019,03,21,03,53,00,114.5,,,,,,,,,,,,,,
2019,03,21,03,54,00,88.6,,,,,,,,,,,,,,
2019,03,21,03,55,00,82.6,,,,,,,,,,,,,,
2019,03,21,03,56,00,85.0,,,,,,,,,,,,,,
2019,03,21,03,57,00,96.6,,,,,,,,,,,,,,
2019,03,21,03,58,00,105.4,,,,,,,,,,,,,,
2019,03,21,03,59,00,110.0,,,,,,,,,,,,,,
2019,03,21,04,00,00,117.9,,,,,,,,,,,,,,
2019,03,21,04,01,00,119.2,,,,,,,,,,,,,,
2019,03,21,04,02,00,116.8,,,,,,,,,,,,,,
2019,03,21,04,03,00,108.4,,,,,,,,,,,,,,
2019,03,21,04,04,00,106.0,,,,,,,,,,,,,,
2019,03,21,04,05,00,97.1,,,,,,,,,,,,,,
2019,03,21,04,06,00,106.5,,,,,,,,,,,,,,
2019,03,21,04,07,00,140.7,,,,,,,,,,,,,,
2019,03,21,04,08,00,167.6,,,,,,,,,,,,,,
2019,03,21,04,09,00,154.7,,,,,,,,,,,,,,
2019,03,21,04,10,00,115.8,,,,,,,,,,,,,,
2019,03,21,04,11,00,110.8,,,,,,,,,,,,,,
2019,03,21,04,12,00,148.8,,,,,,,,,,,,,,
2019,03,21,04,13,00,194.8,,,,,,,,,,,,,,
2019,03,21,04,14,00,165.1,,,,,,,,,,,,,,
2019,03,21,04,15,00,127.5,,,,,,,,,,,,,,
2019,03,21,04,16,00,118.8,,,,,,,,,,,,,,
2019,03,21,04,17,00,121.4,,,,,,,,,,,,,,
2019,03,21,04,18,00,119.9,,,,,,,,,,,,,,
2019,03,21,04,19,00,135.8,,,,,,,,,,,,,,
2019,03,21,04,20,00,121.6,,,,,,,,,,,,,,
2019,03,21,04,21,00,122.7,,,,,,,,,,,,,,
2019,03,21,04,22,00,124.3,,,,,,,,,,,,,,
2019,03,21,04,23,00,130.5,,,,,,,,,,,,,,
2019,03,21,04,24,00,159.9,,,,,,,,,,,,,,
2019,03,21,04,25,00,170.8,,,,,,,,,,,,,,
2019,03,21,04,26,00,200.2,,,,,,,,,,,,,,
2019,03,21,04,27,00,164.9,,,,,,,,,,,,,,
2019,03,21,04,28,00,146.5,,,,,,,,,,,,,,
2019,03,21,04,29,00,129.5,,,,,,,,,,,,,,
2019,03,21,04,30,00,119.7,,,,,,,,,,,,,,
2019,03,21,04,31,00,116.8,,,,,,,,,,,,,,
2019,03,21,04,32,00,113.6,,,,,,,,,,,,,,
2019,03,21,04,33,00,115.5,,,,,,,,,,,,,,
2019,03,21,04,34,00,115.6,,,,,,,,,,,,,,
2019,03,21,04,35,00,111.9,,,,,,,,,,,,,,
2019,03,21,04,36,00,110.3,,,,,,,,,,,,,,
2019,03,21,04,37,00,104.8,,,,,,,,,,,,,,
2019,03,21,04,38,00,106.0,,,,,,,,,,,,,,
2019,03,21,04,39,00,111.0,,,,,,,,,,,,,,
2019,03,21,04,40,00,104.8,,,,,,,,,,,,,,
2019,03,21,04,41,00,95.0,,,,,,,,,,,,,,
2019,03,21,04,42,00,99.2,,,,,,,,,,,,,,
2019,03,21,04,43,00,106.3,,,,,,,,,,,,,,
2019,03,21,04,44,00,122.7,,,,,,,,,,,,,,
2019,03,21,04,45,00,122.6,,,,,,,,,,,,,,
2019,03,21,04,46,00,107.6,,,,,,,,,,,,,,
2019,03,21,04,47,00,115.7,,,,,,,,,,,,,,
2019,03,21,04,48,00,120.9,,,,,,,,,,,,,,
2019,03,21,04,49,00,119.2,,,,,,,,,,,,,,
2019,03,21,04,50,00,117.7,,,,,,,,,,,,,,
2019,03,21,04,51,00,124.9,,,,,,,,,,,,,,
2019,03,21,04,52,00,132.6,,,,,,,,,,,,,,
2019,03,21,04,53,00,137.2,,,,,,,,,,,,,,
2019,03,21,04,54,00,144.2,,,,,,,,,,,,,,
2019,03,21,04,55,00,140.0,,,,,,,,,,,,,,
2019,03,21,04,56,00,127.2,,,,,,,,,,,,,,
2019,03,21,04,57,00,127.3,,,,,,,,,,,,,,
2019,03,21,04,58,00,117.4,,,,,,,,,,,,,,
2019,03,21,04,59,00,119.4,,,,,,,,,,,,,,
2019,03,21,05,00,00,122.3,,,,,,,,,,,,,,
2019,03,21,05,01,00,124.4,,,,,,,,,,,,,,
2019,03,21,05,02,00,111.4,,,,,,,,,,,,,,
2019,03,21,05,03,00,101.4,,,,,,,,,,,,,,
2019,03,21,05,04,00,104.4,,,,,,,,,,,,,,
2019,03,21,05,05,00,117.6,,,,,,,,,,,,,,
2019,03,21,05,06,00,143.3,,,,,,,,,,,,,,
2019,03,21,05,07,00,172.3,,,,,,,,,,,,,,
2019,03,21,05,08,00,124.7,,,,,,,,,,,,,,
2019,03,21,05,09,00,105.3,,,,,,,,,,,,,,
2019,03,21,05,10,00,106.8,,,,,,,,,,,,,,
2019,03,21,05,11,00,127.6,,,,,,,,,,,,,,
2019,03,21,05,12,00,122.1,,,,,,,,,,,,,,
2019,03,21,05,13,00,116.0,,,,,,,,,,,,,,
2019,03,21,05,14,00,122.6,,,,,,,,,,,,,,
2019,03,21,05,15,00,126.0,,,,,,,,,,,,,,
2019,03,21,05,16,00,133.4,,,,,,,,,,,,,,
2019,03,21,05,17,00,123.7,,,,,,,,,,,,,,
2019,03,21,05,18,00,127.3,,,,,,,,,,,,,,
2019,03,21,05,19,00,113.3,,,,,,,,,,,,,,
2019,03,21,05,20,00,120.6,,,,,,,,,,,,,,
2019,03,21,05,21,00,119.0,,,,,,,,,,,,,,
2019,03,21,05,22,00,110.3,,,,,,,,,,,,,,
2019,03,21,05,23,00,108.7,,,,,,,,,,,,,,
2019,03,21,05,24,00,129.1,,,,,,,,,,,,,,
2019,03,21,05,25,00,104.7,,,,,,,,,,,,,,
2019,03,21,05,26,00,105.3,,,,,,,,,,,,,,
2019,03,21,05,27,00,102.2,,,,,,,,,,,,,,
2019,03,21,05,28,00,120.6,,,,,,,,,,,,,,
2019,03,21,05,29,00,113.3,,,,,,,,,,,,,,
2019,03,21,05,30,00,89.5,,,,,,,,,,,,,,
2019,03,21,05,31,00,99.6,,,,,,,,,,,,,,
2019,03,21,05,32,00,104.6,,,,,,,,,,,,,,
2019,03,21,05,33,00,122.1,,,,,,,,,,,,,,
2019,03,21,05,34,00,119.7,,,,,,,,,,,,,,
2019,03,21,05,35,00,107.2,,,,,,,,,,,,,,
2019,03,21,05,36,00,100.1,,,,,,,,,,,,,,
2019,03,21,05,37,00,133.0,,,,,,,,,,,,,,
2019,03,21,05,38,00,103.4,,,,,,,,,,,,,,
2019,03,21,05,39,00,110.7,,,,,,,,,,,,,,
2019,03,21,05,40,00,114.7,,,,,,,,,,,,,,
2019,03,21,05,41,00,108.0,,,,,,,,,,,,,,
2019,03,21,05,42,00,98.2,,,,,,,,,,,,,,
2019,03,21,05,43,00,100.0,,,,,,,,,,,,,,
2019,03,21,05,44,00,132.7,,,,,,,,,,,,,,
2019,03,21,05,45,00,113.7,,,,,,,,,,,,,,
2019,03,21,05,46,00,108.3,,,,,,,,,,,,,,
2019,03,21,05,47,00,89.5,,,,,,,,,,,,,,
2019,03,21,05,48,00,123.2,,,,,,,,,,,,,,
2019,03,21,05,49,00,126.3,,,,,,,,,,,,,,
2019,03,21,05,50,00,150.4,,,,,,,,,,,,,,
2019,03,21,05,51,00,128.9,,,,,,,,,,,,,,
2019,03,21,05,52,00,147.5,,,,,,,,,,,,,,
2019,03,21,05,53,00,126.1,,,,,,,,,,,,,,
2019,03,21,05,54,00,122.8,,,,,,,,,,,,,,
2019,03,21,05,55,00,117.0,,,,,,,,,,,,,,
2019,03,21,05,56,00,117.0,,,,,,,,,,,,,,
2019,03,21,05,57,00,113.5,,,,,,,,,,,,,,
2019,03,21,05,58,00,105.6,,,,,,,,,,,,,,
2019,03,21,05,59,00,105.2,,,,,,,,,,,,,,
2019,03,21,06,00,00,118.4,,,,,,,,,,,,,,
2019,03,21,06,01,00,115.1,,,,,,,,,,,,,,
2019,03,21,06,02,00,114.8,,,,,,,,,,,,,,
2019,03,21,06,03,00,127.6,,,,,,,,,,,,,,
2019,03,21,06,04,00,124.7,,,,,,,,,,,,,,
2019,03,21,06,05,00,132.3,,,,,,,,,,,,,,
2019,03,21,06,06,00,149.4,,,,,,,,,,,,,,
2019,03,21,06,07,00,155.5,,,,,,,,,,,,,,
2019,03,21,06,08,00,166.0,,,,,,,,,,,,,,
2019,03,21,06,09,00,155.0,,,,,,,,,,,,,,
2019,03,21,06,10,00,191.6,,,,,,,,,,,,,,
2019,03,21,06,11,00,138.1,,,,,,,,,,,,,,
2019,03,21,06,12,00,137.0,,,,,,,,,,,,,,
2019,03,21,06,13,00,142.7,,,,,,,,,,,,,,
2019,03,21,06,14,00,131.5,,,,,,,,,,,,,,
2019,03,21,06,15,00,130.1,,,,,,,,,,,,,,
2019,03,21,06,16,00,107.1,,,,,,,,,,,,,,
2019,03,21,06,17,00,111.9,,,,,,,,,,,,,,
2019,03,21,06,18,00,125.0,,,,,,,,,,,,,,
2019,03,21,06,19,00,127.2,,,,,,,,,,,,,,
2019,03,21,06,20,00,124.7,,,,,,,,,,,,,,
2019,03,21,06,21,00,124.7,,,,,,,,,,,,,,
2019,03,21,06,22,00,110.5,,,,,,,,,,,,,,
2019,03,21,06,23,00,108.4,,,,,,,,,,,,,,
2019,03,21,06,24,00,115.5,,,,,,,,,,,,,,
2019,03,21,06,25,00,103.5,,,,,,,,,,,,,,
2019,03,21,06,26,00,102.5,,,,,,,,,,,,,,
2019,03,21,06,27,00,104.4,,,,,,,,,,,,,,
2019,03,21,06,28,00,103.1,,,,,,,,,,,,,,
2019,03,21,06,29,00,106.0,,,,,,,,,,,,,,
2019,03,21,06,30,00,113.9,,,,,,,,,,,,,,
2019,03,21,06,31,00,138.8,,,,,,,,,,,,,,
2019,03,21,06,32,00,149.1,,,,,,,,,,,,,,
2019,03,21,06,33,00,119.9,,,,,,,,,,,,,,
2019,03,21,06,34,00,119.2,,,,,,,,,,,,,,
2019,03,21,06,35,00,121.4,,,,,,,,,,,,,,
2019,03,21,06,36,00,136.5,,,,,,,,,,,,,,
2019,03,21,06,37,00,183.4,,,,,,,,,,,,,,
2019,03,21,06,38,00,183.8,,,,,,,,,,,,,,
2019,03,21,06,39,00,125.7,,,,,,,,,,,,,,
2019,03,21,06,40,00,125.2,,,,,,,,,,,,,,
2019,03,21,06,41,00,127.8,,,,,,,,,,,,,,
2019,03,21,06,42,00,129.4,,,,,,,,,,,,,,
2019,03,21,06,43,00,128.8,,,,,,,,,,,,,,
2019,03,21,06,44,00,121.2,,,,,,,,,,,,,,
2019,03,21,06,45,00,140.9,,,,,,,,,,,,,,
2019,03,21,06,46,00,127.9,,,,,,,,,,,,,,
2019,03,21,06,47,00,121.6,,,,,,,,,,,,,,
2019,03,21,06,48,00,120.4,,,,,,,,,,,,,,
2019,03,21,06,49,00,119.6,,,,,,,,,,,,,,
2019,03,21,06,50,00,128.6,,,,,,,,,,,,,,
2019,03,21,06,51,00,155.5,,,,,,,,,,,,,,
2019,03,21,06,52,00,174.2,,,,,,,,,,,,,,
2019,03,21,06,53,00,184.7,,,,,,,,,,,,,,
2019,03,21,06,54,00,165.5,,,,,,,,,,,,,,
2019,03,21,06,55,00,145.8,,,,,,,,,,,,,,
2019,03,21,06,56,00,122.3,,,,,,,,,,,,,,
2019,03,21,06,57,00,113.8,,,,,,,,,,,,,,
2019,03,21,06,58,00,167.9,,,,,,,,,,,,,,
2019,03,21,06,59,00,231.9,,,,,,,,,,,,,,
2019,03,21,07,00,00,171.8,,,,,,,,,,,,,,
2019,03,21,07,01,00,165.0,,,,,,,,,,,,,,
2019,03,21,07,02,00,149.1,,,,,,,,,,,,,,
2019,03,21,07,03,00,143.7,,,,,,,,,,,,,,
2019,03,21,07,04,00,129.4,,,,,,,,,,,,,,
2019,03,21,07,05,00,130.3,,,,,,,,,,,,,,
2019,03,21,07,06,00,123.4,,,,,,,,,,,,,,
2019,03,21,07,07,00,138.3,,,,,,,,,,,,,,
2019,03,21,07,08,00,142.2,,,,,,,,,,,,,,
2019,03,21,07,09,00,123.5,,,,,,,,,,,,,,
2019,03,21,07,10,00,127.3,,,,,,,,,,,,,,
2019,03,21,07,11,00,137.1,,,,,,,,,,,,,,
2019,03,21,07,12,00,151.5,,,,,,,,,,,,,,
2019,03,21,07,13,00,164.2,,,,,,,,,,,,,,
2019,03,21,07,14,00,231.1,,,,,,,,,,,,,,
2019,03,21,07,15,00,296.0,,,,,,,,,,,,,,
2019,03,21,07,16,00,256.1,,,,,,,,,,,,,,
2019,03,21,07,17,00,242.3,,,,,,,,,,,,,,
2019,03,21,07,18,00,211.4,,,,,,,,,,,,,,
2019,03,21,07,19,00,172.6,,,,,,,,,,,,,,
2019,03,21,07,20,00,189.3,,,,,,,,,,,,,,
2019,03,21,07,21,00,168.3,,,,,,,,,,,,,,
2019,03,21,07,22,00,163.3,,,,,,,,,,,,,,
2019,03,21,07,23,00,181.8,,,,,,,,,,,,,,
2019,03,21,07,24,00,238.7,,,,,,,,,,,,,,
2019,03,21,07,25,00,245.0,,,,,,,,,,,,,,
2019,03,21,07,26,00,248.0,,,,,,,,,,,,,,
2019,03,21,07,27,00,279.4,,,,,,,,,,,,,,
2019,03,21,07,28,00,229.6,,,,,,,,,,,,,,
2019,03,21,07,29,00,166.0,,,,,,,,,,,,,,
2019,03,21,07,30,00,157.7,,,,,,,,,,,,,,
2019,03,21,07,31,00,173.6,,,,,,,,,,,,,,
2019,03,21,07,32,00,173.6,,,,,,,,,,,,,,
2019,03,21,07,33,00,155.3,,,,,,,,,,,,,,
2019,03,21,07,34,00,166.9,,,,,,,,,,,,,,
2019,03,21,07,35,00,183.2,,,,,,,,,,,,,,
2019,03,21,07,36,00,197.5,,,,,,,,,,,,,,
2019,03,21,07,37,00,205.5,,,,,,,,,,,,,,
2019,03,21,07,38,00,211.0,,,,,,,,,,,,,,
2019,03,21,07,39,00,213.0,,,,,,,,,,,,,,
2019,03,21,07,40,00,199.4,,,,,,,,,,,,,,
2019,03,21,07,41,00,200.6,,,,,,,,,,,,,,
2019,03,21,07,42,00,199.7,,,,,,,,,,,,,,
2019,03,21,07,43,00,161.6,,,,,,,,,,,,,,
2019,03,21,07,44,00,149.4,,,,,,,,,,,,,,
2019,03,21,07,45,00,158.4,,,,,,,,,,,,,,
2019,03,21,07,46,00,178.8,,,,,,,,,,,,,,
2019,03,21,07,47,00,245.4,,,,,,,,,,,,,,
2019,03,21,07,48,00,340.6,,,,,,,,,,,,,,
2019,03,21,07,49,00,356.4,,,,,,,,,,,,,,
2019,03,21,07,50,00,337.5,,,,,,,,,,,,,,
2019,03,21,07,51,00,299.2,,,,,,,,,,,,,,
2019,03,21,07,52,00,291.8,,,,,,,,,,,,,,
2019,03,21,07,53,00,263.1,,,,,,,,,,,,,,
2019,03,21,07,54,00,229.6,,,,,,,,,,,,,,
2019,03,21,07,55,00,231.5,,,,,,,,,,,,,,
2019,03,21,07,56,00,225.0,,,,,,,,,,,,,,
2019,03,21,07,57,00,239.9,,,,,,,,,,,,,,
2019,03,21,07,58,00,243.8,,,,,,,,,,,,,,
2019,03,21,07,59,00,225.9,,,,,,,,,,,,,,
2019,03,21,08,00,00,233.0,,,,,,,,,,,,,,
2019,03,21,08,01,00,276.4,,,,,,,,,,,,,,
2019,03,21,08,02,00,332.6,,,,,,,,,,,,,,
2019,03,21,08,03,00,484.0,,,,,,,,,,,,,,
2019,03,21,08,04,00,570.7,,,,,,,,,,,,,,
2019,03,21,08,05,00,439.9,,,,,,,,,,,,,,
2019,03,21,08,06,00,457.7,,,,,,,,,,,,,,
2019,03,21,08,07,00,459.4,,,,,,,,,,,,,,
2019,03,21,08,08,00,364.3,,,,,,,,,,,,,,
2019,03,21,08,09,00,427.8,,,,,,,,,,,,,,
2019,03,21,08,10,00,431.4,,,,,,,,,,,,,,
2019,03,21,08,11,00,328.3,,,,,,,,,,,,,,
2019,03,21,08,12,00,293.4,,,,,,,,,,,,,,
2019,03,21,08,13,00,364.8,,,,,,,,,,,,,,
2019,03,21,08,14,00,418.1,,,,,,,,,,,,,,
2019,03,21,08,15,00,342.6,,,,,,,,,,,,,,
2019,03,21,08,16,00,363.4,,,,,,,,,,,,,,
2019,03,21,08,17,00,455.3,,,,,,,,,,,,,,
2019,03,21,08,18,00,537.6,,,,,,,,,,,,,,
2019,03,21,08,19,00,569.4,,,,,,,,,,,,,,
2019,03,21,08,20,00,514.8,,,,,,,,,,,,,,
2019,03,21,08,21,00,412.7,,,,,,,,,,,,,,
2019,03,21,08,22,00,350.7,,,,,,,,,,,,,,
2019,03,21,08,23,00,327.1,,,,,,,,,,,,,,
2019,03,21,08,24,00,298.5,,,,,,,,,,,,,,
2019,03,21,08,25,00,345.7,,,,,,,,,,,,,,
2019,03,21,08,26,00,403.9,,,,,,,,,,,,,,
2019,03,21,08,27,00,362.8,,,,,,,,,,,,,,
2019,03,21,08,28,00,321.2,,,,,,,,,,,,,,
2019,03,21,08,29,00,319.6,,,,,,,,,,,,,,
2019,03,21,08,30,00,394.5,,,,,,,,,,,,,,
2019,03,21,08,31,00,462.3,,,,,,,,,,,,,,
2019,03,21,08,32,00,502.1,,,,,,,,,,,,,,
2019,03,21,08,33,00,420.4,,,,,,,,,,,,,,
2019,03,21,08,34,00,392.9,,,,,,,,,,,,,,
2019,03,21,08,35,00,386.4,,,,,,,,,,,,,,
2019,03,21,08,36,00,425.8,,,,,,,,,,,,,,
2019,03,21,08,37,00,507.8,,,,,,,,,,,,,,
2019,03,21,08,38,00,530.7,,,,,,,,,,,,,,
2019,03,21,08,39,00,465.9,,,,,,,,,,,,,,
2019,03,21,08,40,00,351.4,,,,,,,,,,,,,,
2019,03,21,08,41,00,336.7,,,,,,,,,,,,,,
2019,03,21,08,42,00,386.8,,,,,,,,,,,,,,
2019,03,21,08,43,00,457.0,,,,,,,,,,,,,,
2019,03,21,08,44,00,486.6,,,,,,,,,,,,,,
2019,03,21,08,45,00,516.0,,,,,,,,,,,,,,
2019,03,21,08,46,00,438.9,,,,,,,,,,,,,,
2019,03,21,08,47,00,447.4,,,,,,,,,,,,,,
2019,03,21,08,48,00,476.0,,,,,,,,,,,,,,
2019,03,21,08,49,00,453.8,,,,,,,,,,,,,,
2019,03,21,08,50,00,562.4,,,,,,,,,,,,,,
2019,03,21,08,51,00,602.8,,,,,,,,,,,,,,
2019,03,21,08,52,00,487.7,,,,,,,,,,,,,,
2019,03,21,08,53,00,428.0,,,,,,,,,,,,,,
2019,03,21,08,54,00,425.5,,,,,,,,,,,,,,
2019,03,21,08,55,00,507.6,,,,,,,,,,,,,,
2019,03,21,08,56,00,574.7,,,,,,,,,,,,,,
2019,03,21,08,57,00,516.9,,,,,,,,,,,,,,
2019,03,21,08,58,00,435.4,,,,,,,,,,,,,,
2019,03,21,08,59,00,432.1,,,,,,,,,,,,,,
2019,03,21,09,00,00,482.4,,,,,,,,,,,,,,
2019,03,21,09,01,00,481.0,,,,,,,,,,,,,,
2019,03,21,09,02,00,457.9,,,,,,,,,,,,,,
2019,03,21,09,03,00,402.2,,,,,,,,,,,,,,
2019,03,21,09,04,00,437.3,,,,,,,,,,,,,,
2019,03,21,09,05,00,544.5,,,,,,,,,,,,,,
2019,03,21,09,06,00,614.9,,,,,,,,,,,,,,
2019,03,21,09,07,00,596.0,,,,,,,,,,,,,,
2019,03,21,09,08,00,500.6,,,,,,,,,,,,,,
2019,03,21,09,09,00,429.3,,,,,,,,,,,,,,
2019,03,21,09,10,00,392.3,,,,,,,,,,,,,,
2019,03,21,09,11,00,401.1,,,,,,,,,,,,,,
2019,03,21,09,12,00,390.3,,,,,,,,,,,,,,
2019,03,21,09,13,00,405.0,,,,,,,,,,,,,,
2019,03,21,09,14,00,506.8,,,,,,,,,,,,,,
2019,03,21,09,15,00,512.8,,,,,,,,,,,,,,
2019,03,21,09,16,00,499.7,,,,,,,,,,,,,,
2019,03,21,09,17,00,541.6,,,,,,,,,,,,,,
2019,03,21,09,18,00,469.4,,,,,,,,,,,,,,
2019,03,21,09,19,00,434.5,,,,,,,,,,,,,,
2019,03,21,09,20,00,513.6,,,,,,,,,,,,,,
2019,03,21,09,21,00,533.6,,,,,,,,,,,,,,
2019,03,21,09,22,00,497.1,,,,,,,,,,,,,,
2019,03,21,09,23,00,550.4,,,,,,,,,,,,,,
2019,03,21,09,24,00,527.5,,,,,,,,,,,,,,
2019,03,21,09,25,00,477.5,,,,,,,,,,,,,,
2019,03,21,09,26,00,431.5,,,,,,,,,,,,,,
2019,03,21,09,27,00,417.6,,,,,,,,,,,,,,
2019,03,21,09,28,00,538.7,,,,,,,,,,,,,,
2019,03,21,09,29,00,,,,,,,,,,,,,,,
2019,03,21,09,30,00,,,,,,,,,,,,,,,
2019,03,21,09,31,00,436.1,,,,,,,,,,,,,,
2019,03,21,09,32,00,446.3,,,,,,,,,,,,,,
2019,03,21,09,33,00,486.1,,,,,,,,,,,,,,
2019,03,21,09,34,00,506.9,,,,,,,,,,,,,,
2019,03,21,09,35,00,531.3,,,,,,,,,,,,,,
2019,03,21,09,36,00,519.9,,,,,,,,,,,,,,
2019,03,21,09,37,00,500.1,,,,,,,,,,,,,,
2019,03,21,09,38,00,476.1,,,,,,,,,,,,,,
2019,03,21,09,39,00,491.0,,,,,,,,,,,,,,
2019,03,21,09,40,00,466.5,,,,,,,,,,,,,,
2019,03,21,09,41,00,473.9,,,,,,,,,,,,,,
2019,03,21,09,42,00,517.4,,,,,,,,,,,,,,
2019,03,21,09,43,00,565.5,,,,,,,,,,,,,,
2019,03,21,09,44,00,593.8,,,,,,,,,,,,,,
2019,03,21,09,45,00,597.9,,,,,,,,,,,,,,
2019,03,21,09,46,00,595.7,,,,,,,,,,,,,,